Home   Weather   USA   Washington DC   Past weeks
Flag for USA

Past Weather in Washington DC, USA — December 2018

Currently: 60 °F. Sunny. (Weather station: Reagan National Airport, USA). See more current weather

December 2018 Weather in Washington DC — Graph

°F

High & Low Weather Summary for December 2018

 TemperatureHumidityPressure
High65 °F (Dec 21, 1:52 pm)97% (Dec 28, 10:02 pm)30.61 "Hg (Dec 28, 10:02 pm)
Low28 °F (Dec 8, 6:52 am)31% (Dec 11, 2:52 pm)29.18 "Hg (Dec 21, 4:52 pm)
Average44 °F69%30.09 "Hg
* Reported Dec 1 12:52 am — Dec 31 11:56 pm, Washington DC. Weather by CustomWeather, © 2021

Note: Actual official high and low records may vary slightly from our data, if they occured in-between our weather recording intervals... More about our weather records

Washington DC Weather History for December 1, 2018

Scroll right to see more
 ConditionsComfort  
Time TempWeatherWind HumidityBarometerVisibility
12:52 am
Sat, Dec 1
38 °FPassing clouds.3 mph83%30.15 "Hg8 mi
1:52 am38 °FPassing clouds.No wind79%30.16 "Hg8 mi
2:17 am38 °FPassing clouds.No wind83%30.16 "Hg8 mi
2:52 am38 °FOvercast.3 mph86%30.17 "Hg8 mi
3:22 am37 °FPassing clouds.6 mph82%30.19 "Hg10 mi
3:52 am38 °FPassing clouds.No wind83%30.18 "Hg10 mi
4:52 am38 °FHigh level clouds.3 mph83%30.18 "Hg10 mi
5:52 am39 °FOvercast.No wind82%30.19 "Hg10 mi
6:52 am40 °FOvercast.No wind83%30.20 "Hg10 mi
7:52 am41 °FOvercast.No wind82%30.21 "Hg8 mi
8:52 am42 °FOvercast.5 mph79%30.20 "Hg9 mi
9:52 am43 °FOvercast.7 mph74%30.20 "Hg9 mi
10:52 am43 °FOvercast.No wind71%30.21 "Hg9 mi
11:19 am43 °FLight rain. Overcast.5 mph74%30.20 "Hg3 mi
11:27 am43 °FLight rain. Fog.3 mph76%30.20 "Hg2 mi
11:52 am41 °FLight rain. Fog.No wind86%30.19 "Hg2 mi
12:12 pm41 °FLight rain. Fog.No wind86%30.18 "Hg2 mi
12:20 pm41 °FLight rain. Fog.No wind86%30.18 "Hg2 mi
12:36 pm41 °FRain. Fog.3 mph86%30.17 "Hg2 mi
12:52 pm41 °FRain. Fog.5 mph89%30.16 "Hg2 mi
1:15 pm41 °FLight rain. Fog.3 mph89%30.16 "Hg2 mi
1:24 pm41 °FLight rain. Fog.5 mph89%30.16 "Hg3 mi
2:03 pm42 °FDrizzle. Fog.6 mph85%30.14 "Hg4 mi
2:17 pm42 °FDrizzle. Fog.7 mph85%30.13 "Hg2 mi
3:00 pm42 °FDrizzle. Fog.5 mph89%30.12 "Hg1 mi
4:08 pm41 °FDrizzle. Fog.5 mph93%30.12 "Hg1 mi
4:20 pm41 °FDrizzle. Fog.3 mph93%30.13 "Hg1 mi
5:00 pm41 °FDrizzle. Fog.7 mph93%30.10 "Hg2 mi
5:19 pm41 °FDrizzle. Fog.6 mph93%30.10 "Hg1 mi
5:52 pm41 °FDrizzle. Fog.6 mph93%30.09 "Hg2 mi
6:17 pm41 °FDrizzle. Fog.6 mph93%30.09 "Hg2 mi
6:52 pm42 °FDrizzle. Fog.5 mph89%30.08 "Hg3 mi
7:52 pm43 °FDrizzle. Fog.5 mph89%30.06 "Hg4 mi
8:07 pm43 °FDrizzle. Fog.6 mph89%30.07 "Hg4 mi
8:52 pm43 °FDrizzle. Fog.No wind89%30.04 "Hg4 mi
9:52 pm44 °FDrizzle. Fog.5 mph89%30.01 "Hg4 mi
10:39 pm44 °FDrizzle. Fog.5 mph89%29.98 "Hg2 mi
10:52 pm44 °FDrizzle. Fog.6 mph93%29.97 "Hg1 mi
Weather by CustomWeather, © 2021

See weather overview